Location: Songkhla
(7.2000°N, 100.6000°E)
Time: 15:22:43
(UTC+07:00)

ISS - Visible Passes

Search period start: 14 April 2024 00:00
Search period end: 24 April 2024 00:00
Orbit: 413 x 419 km, 51.6° (Epoch: 13 April)

Date Brightness Start Highest point End Pass type
(mag) Time Alt. Az. Time Alt. Az. Time Alt. Az.
15 Apr -3.9 05:05:08 37° SW 05:06:17 78° NW 05:09:36 10° NNE visible
16 Apr -1.3 04:19:21 23° ENE 04:19:21 23° ENE 04:20:53 10° NE visible
17 Apr -1.7 05:06:20 15° NW 05:06:20 15° NW 05:07:50 10° NNW visible
